This is the latest recevied weather packets stored in our database for station/object N7NMS-13. If no packets are shown the sender has not sent any weather packets the latest 1 day(s).
| Time | Temp. | Humidity | Pressure | Rain* | Wind** | Luminosity | Snow |
|---|---|---|---|---|---|---|---|
| 1778022049 | 22.78° C | 41% | - | 0 mm | 0.89 m/s, 190° | - | - |
| 1778021418 | 22.78° C | 41% | - | 0 mm | 0.45 m/s, 211° | - | - |
| 1778020818 | 23.33° C | 40% | - | 0 mm | 0.89 m/s, 204° | - | - |
| 1778020218 | 22.22° C | 40% | - | 0 mm | 1.79 m/s, 202° | - | - |
| 1778019618 | 23.33° C | 40% | - | 0 mm | 0.89 m/s, 169° | - | - |
| 1778019018 | 23.33° C | 39% | - | 0 mm | 1.34 m/s, 211° | - | - |
| 1778018418 | 23.33° C | 39% | - | 0 mm | 1.79 m/s, 205° | - | - |
| 1778017817 | 23.33° C | 38% | - | 0 mm | 0.45 m/s, 197° | - | - |
| 1778017217 | 23.89° C | 37% | - | 0 mm | 0.89 m/s, 249° | - | - |
| 1778016617 | 23.89° C | 37% | - | 0 mm | 1.79 m/s, 212° | - | - |
| 1778016017 | 23.89° C | 37% | - | 0 mm | 0 m/s | - | - |
| 1778015417 | 24.44° C | 36% | - | 0 mm | 0 m/s | - | - |
| 1778014817 | 23.89° C | 34% | - | 0 mm | 1.79 m/s, 238° | - | - |
| 1778014216 | 24.44° C | 34% | - | 0 mm | 0 m/s | - | - |
| 1778013616 | 25° C | 32% | - | 0 mm | 1.34 m/s, 177° | - | - |
| 1778013016 | 25° C | 33% | - | 0 mm | 0 m/s | - | - |
| 1778012416 | 24.44° C | 32% | - | 0 mm | 0 m/s | - | - |
| 1778011816 | 24.44° C | 32% | - | 0 mm | 2.24 m/s, 207° | - | - |
| 1778011215 | 24.44° C | 30% | - | 0 mm | 1.34 m/s, 200° | - | - |
| 1778010615 | 25.56° C | 29% | - | 0 mm | 1.79 m/s, 194° | - | - |
| 1778010015 | 25.56° C | 30% | - | 0 mm | 0 m/s | - | - |
| 1778009415 | 25.56° C | 29% | - | 0 mm | 0.89 m/s, 159° | - | - |
| 1778008815 | 25.56° C | 31% | - | 0 mm | 0 m/s | - | - |
| 1778008215 | 25.56° C | 28% | - | 0 mm | 1.34 m/s, 166° | - | - |
| 1778007615 | 25° C | 30% | - | 0 mm | 0 m/s | - | - |
* Rain latest hour (hover to see other rain measurements)
** Current wind speed in m/s (hover to see current wind gust speed)